Regional Weather Roundup
Issued by NWS

Home | Current Version | Previous Version | Text Only | Print | Product List | Glossary Off
Versions: 1 2 3 4 5 6 7 8 9 10 11 12 13 14 15 16 17 18 19 20 21 22 23 24 25 26 27 28 29 30 31 32 33 34 35 36 37 38 39 40 41 42 43 44 45 46 47 48 49 50

840
ASUS43 KLSX 261307
RWRMO

WEATHER SUMMARY FOR MISSOURI
NATIONAL WEATHER SERVICE SPRINGFIELD MO
800 AM CDT SAT MAY 26 2018

NOTE: "FAIR" INDICATES FEW OR NO CLOUDS BELOW 12,000 FEET WITH NO
       SIGNIFICANT WEATHER AND/OR OBSTRUCTIONS TO VISIBILITY.
       CURRENT SKY AND/OR WEATHER CONDITIONS ARE NOT AVAILABLE FOR
       CHILLICOTHE AND FARMINGTON.

MOZ001>031-035>038-043-044-053-054-261400-
...NORTHERN AND WESTERN MISSOURI...

CITY           SKY/WX    TMP DP  RH WIND       PRES   REMARKS
KANSAS CTY INT MOSUNNY   73  67  81 SW7       29.83R
KANSAS C DTWN  SUNNY     76  65  68 SW7       29.82R
LEE`S SUMMIT   SUNNY     74  67  78 SW8       29.85R
ST JOSEPH      SUNNY     75  68  78 SW6       29.81R
CHILLICOTHE      N/A     75  68  78 S6        29.82R
KIRKSVILLE     MOSUNNY   74  69  85 SE9       29.83S

$$
MOZ066>068-077>081-088>096-101>105-261400-
...SOUTHWEST MISSOURI...

CITY           SKY/WX    TMP DP  RH WIND       PRES   REMARKS
SPRINGFIELD    MOSUNNY   69  65  86 SW3       29.89R
JOPLIN         SUNNY     72  67  84 S8        29.89R
BRANSON        MOSUNNY   66  66 100 CALM      29.93R FOG

$$
MOZ032>034-039>042-045>050-055>058-069>072-261400-
...CENTRAL MISSOURI...

CITY           SKY/WX    TMP DP  RH WIND       PRES   REMARKS
COLUMBIA       SUNNY     74  68  81 SW6       29.85S
JEFFERSON CITY SUNNY     71  66  84 S5        29.86R
ROLLA          MOSUNNY   69  64  84 S7        29.89R
SEDALIA        SUNNY     72  68  87 SW7       29.86S
WHITEMAN AFB   SUNNY     73  68  83 SW9       29.81R
WARRENSBURG    SUNNY     72  66  83 S6        29.85R
OSAGE BEACH    SUNNY     68  65  90 S5        29.88S

$$
MOZ051-052-059>065-261400-
...EAST CENTRAL MISSOURI...

CITY           SKY/WX    TMP DP  RH WIND       PRES   REMARKS
ST LOUIS INTL  PTSUNNY   72  69  90 S8        29.85F
SPIRIT OF STL  SUNNY     71  69  93 S5        29.85F
ST CHARLES     CLOUDY    74  69  85 SW6       29.85F

$$
MOZ072>076-082>087-097>100-106>115-261400-
...SOUTH CENTRAL AND SOUTHEAST MISSOURI...

CITY           SKY/WX    TMP DP  RH WIND       PRES   REMARKS
CAPE GIRARDEAU PTSUNNY   73  69  87 SW5       29.88R
FARMINGTON     CLOUDY    71  67  87 CALM      29.91R
POPLAR BLUFF   PTSUNNY   72  71  97 CALM      29.88R
WEST PLAINS    MOSUNNY   70  66  87 CALM      29.91R

$$




USA.gov is the U.S. government's official web portal to all federal, state and local government web resources and services.